Regional Weather Roundup
Issued by NWS

Home | Current Version | Previous Version | Text Only | Print | Product List | Glossary On
Versions: 1 2 3 4 5 6 7 8 9 10 11 12 13 14 15 16 17 18 19 20 21 22 23 24 25 26 27 28 29 30 31 32 33 34 35 36 37 38 39 40 41 42 43 44 45 46 47 48 49 50
000
ASUS43 KTOP 041059
RWRKS

WEATHER ROUNDUP FOR KANSAS
NATIONAL WEATHER SERVICE GOODLAND KS
600 AM CDT FRI SEP 04 2015

NOTE:  "FAIR" INDICATES FEW OR NO CLOUDS BELOW 12,000 FEET WITH NO
SIGNIFICANT WEATHER AND/OR OBSTRUCTIONS TO VISIBILITY.

KSZ001>006-013>018-027>032-041>047-041200-
NORTHWEST KANSAS

CITY           SKY/WX    TMP DP  RH WIND       PRES   REMARKS
GOODLAND       PTCLDY    63  54  72 W7        29.86R
HAYS           PTCLDY    75  57  53 S16       29.84S
HILL CITY      CLEAR     75  59  57 S8        29.81R
RUSSELL        MOCLDY    76  61  59 S16       29.84R
$$

KSZ061>065-074>080-084>089-041200-
SOUTHWEST KANSAS

CITY           SKY/WX    TMP DP  RH WIND       PRES   REMARKS
DODGE CITY     PTCLDY    70  58  65 S13       29.88S
ELKHART          N/A     65  53  65 SW6         N/A
GARDEN CITY    CLEAR     66  57  72 SE7       29.85S
GREAT BEND     PTCLDY    73  61  64 S18G25    29.86R
LIBERAL        PTCLDY    70  54  56 S7        29.90R
$$

KSZ066>073-081>083-090>101-041200-
SOUTHEAST KANSAS

CITY           SKY/WX    TMP DP  RH WIND       PRES   REMARKS
CHANUTE        PTCLDY    70  68  93 SE6       29.95R
COFFEYVILLE    PTCLDY    70  68  93 CALM      29.94R
HUTCHINSON     CLEAR     73  62  68 SE9       29.90R
NEWTON         CLEAR     70  61  73 SE7       29.95R
PARSONS        PTCLDY    71  68  90 CALM      29.96R
WICHITA INTL   CLEAR     71  63  75 S8        29.91R
WICHITA JABRA  CLEAR     70  64  81 S9        29.92R
WICHITA MCCONL CLEAR     71  64  78 SE9       29.92R
WINFIELD       CLEAR     72  65  78 SE6       29.93S
$$

KSZ007>012-019>026-033>040-048>060-102>105-041200-
NORTHEAST KANSAS

CITY           SKY/WX    TMP DP  RH WIND       PRES   REMARKS
CONCORDIA      MOCLDY    74  65  73 SE10      29.87S
EMPORIA        MOCLDY    70  68  93 S12       29.92S
LAWRENCE       PTCLDY    69  67  93 E5        29.93S
MANHATTAN      PTCLDY    74  67  78 S6        29.90R
OLATHE IND     PTCLDY    70  67  90 S6        29.95S
OLATHE EXE     PTCLDY    70  67  90 SE3       29.94S
SALINA         CLEAR     76  63  64 S12       29.88R
TOPEKA BILLARD MOCLDY    74  67  78 S6        29.92R
TOPEKA FORBES  PTCLDY    72  67  84 SE6       29.93R
$$


USA.gov is the U.S. government's official web portal to all federal, state and local government web resources and services.